Weather Roundup
Issued by NWS

Home | Current Version | Previous Version | Text Only | Print | Product List | Glossary On
Versions: 1 2 3 4 5 6 7 8 9 10 11 12 13 14 15 16 17 18 19 20 21 22 23 24 25 26 27 28 29 30 31 32 33 34 35 36 37 38 39 40 41 42 43 44 45 46 47 48 49 50
000
NZUS93 KARX 310310
HRRWXR

CURRENT HOURLY OBSERVATIONS ACROSS
MUCH OF THE UPPER MISSISSIPPI VALLEY
NATIONAL WEATHER SERVICE LA CROSSE WI
1000 PM CDT SUN AUG 30 2015


...SOUTHEAST MINNESOTA...


CITY           SKY/WX    TMP DP  RH WIND       PRES   REMARKS
ROCHESTER      CLEAR     62  61  96 S7        30.00S
ROCHESTER/MAYO FAIR      65  65 100 SE5       29.99S
WINONA         CLEAR     66  64  94 CALM      29.98F
AUSTIN         NOT AVBL
ALBERT LEA     CLEAR     66  64  94 S6        29.98S
DODGE CENTER   PTCLDY    63  61  94 S7        29.98S FOG
PRESTON        CLEAR     62  60  93 S6        30.01S
OWATONNA       CLEAR     66  63  88 S6        29.97S
FARIBAULT      CLEAR     66  64  94 S5        29.96S
$$

...ELSEWHERE IN MINNESOTA...


CITY           SKY/WX    TMP DP  RH WIND       PRES   REMARKS
MINNEAPOLIS    MOCLDY    72  66  81 S10       29.94R
INTNL FALLS    MOCLDY    71  67  87 CALM      29.79S
DULUTH         CLEAR     69  64  84 SW9       29.90S
RED WING       CLEAR     70  64  83 CALM      29.95S
REDWOOD FALLS  CLEAR     67  65  93 S7        29.90R
MANKATO        CLEAR     66  63  88 S7        29.95S
WORTHINGTON    PTCLDY    64  61  88 S10       29.95R
FAIRMONT       CLEAR     64  59  82 S9        29.95S
$$

...SOUTHWEST WISCONSIN...


CITY           SKY/WX    TMP DP  RH WIND       PRES   REMARKS
LA CROSSE      CLEAR     67  63  87 S5        29.98S
PRAIRIE DU CHI CLEAR     64  62  94 CALM      30.01S FOG
BOSCOBEL       FOG       61  60  97 CALM      30.01S VSB 3/4
LONE ROCK      CLEAR     62  60  93 CALM      30.02R
PLATTEVILLE    CLEAR     64  64  97 S5        30.03S
FORT MC COY    CLEAR     60  59  95 CALM      30.01S
CAMP DOUGLAS   CLEAR     57  57 100 S3        30.00S FOG
VIROQUA          N/A     64  64 100 S5        30.02S
WIS DELLS      CLEAR     64  62  93 CALM      30.02S
$$

...ELSEWHERE IN WISCONSIN...


CITY           SKY/WX    TMP DP  RH WIND       PRES   REMARKS
MILWAUKEE      CLEAR     64  61  90 S6        30.03S FOG
MADISON        MOCLDY    66  63  90 S5        30.02R
GREEN BAY      CLEAR     65  63  93 S5        29.99S
EAU CLAIRE     CLEAR     66  63  90 S5        29.96F
BLACK RVR FLS  FOG       58  58 100 CALM      29.98F VSB 1/2
MEDFORD        CLEAR     62  62  97 S5        30.00S
WAUSAU         CLEAR     66  63  90 SW6       29.99R
WIS RAPIDS     CLEAR     63  61  93 S3        30.01F
MARSHFIELD     CLEAR     64  60  87 SW5       30.00F
RICE LAKE      CLEAR     64  61  91 SE5       29.97S
$$

...NORTHEAST IOWA...


CITY           SKY/WX    TMP DP  RH WIND       PRES   REMARKS
DECORAH        CLOUDY    64  63  94 S5        30.00S
MASON CITY     CLEAR     61  61 100 S6        30.00S
CHARLES CITY   PTCLDY    63  63 100 S3        30.01S
OELWEIN        CLEAR     63  63 100 SE5       30.02F FOG
$$

...ELSEWHERE IN IOWA...


CITY           SKY/WX    TMP DP  RH WIND       PRES   REMARKS
DES MOINES     PTCLDY    72  68  87 SE7       29.98S
IOWA CITY      CLEAR     65  63  93 CALM      30.02S
FORT DODGE     CLEAR     66  63  88 S3        29.99S
$$

...NORTHERN ILLINOIS...


CITY           SKY/WX    TMP DP  RH WIND       PRES   REMARKS
CHICAGO-OHARE  CLEAR     65  63  93 SE7       30.04S
CHICAGO-MIDWAY CLEAR     70  65  84 E5        30.04S
MOLINE         CLEAR     66  63  90 E3        30.02R
ROCKFORD       CLEAR     66  62  87 CALM      30.05S
PEORIA         CLEAR     73  66  78 E3        30.03S
$$

NOTE: "FAIR" INDICATES FEW OR NO CLOUDS BELOW 12,000 FEET WITH NO
SIGNIFICANT WEATHER AND/OR OBSTRUCTIONS TO VISIBILITY. WIND
SPEEDS ARE IN MILES-PER-HOUR.



USA.gov is the U.S. government's official web portal to all federal, state and local government web resources and services.